Home > Time Zones > World Clock > Weather > Norway > Oslo > Past weeks

Flag for Norway Weather past 2 weeks in Oslo, Norway

Now
63 °F

Overcast.


Feels Like: 63 °F
Forecast: 52 / 57 °F
Wind: 1 mph from Southeast

Location: Oslo-Blindern

Current Time: Aug 29, 2014 at 9:09:45 PM

Latest Report: Aug 29, 2014 at 8:00 PM


Visibility: 47 mi

Pressure: 29.93 "Hg

Humidity: 53%

Dew point: 46 °F

Location of OsloLocation

Historic Weather in Oslo — Graph

°F

Oslo temperature yesterday

Maximum temperature yesterday: 70 °F (at 2:00 PM)
Minimum temperature yesterday: 54 °F (at 7:00 AM)
Average temperature yesterday: 61 °F

Past Weeks' High & Low Weather Summary

 TemperatureHumidityPressure
High70 °F (Aug 28, 2:00 PM)97% (Aug 17, 11:00 AM)29.99 "Hg (Aug 17, 11:00 AM)
Low46 °F (Aug 24, 6:00 AM)39% (Aug 27, 2:00 PM)29.18 "Hg (Aug 18, 9:00 AM)
Average58 °F75%29.61 "Hg
* Reported Aug 14 7:00 PM — Aug 29 7:00 PM, Oslo, Weather by CustomWeather, © 2014

Note: Actual official high and low records may vary slightly from our data, if they occured in-between our weather recording intervals... More about our weather records

Advertising

Oslo weather history for previous 24 hours

 ConditionsComfort  
Time TempWeatherWind HumidityBarometerVisibility
7:00 PM
Aug 29
65 °FMild.2 mph49%29.93 "HgN/A
6:00 PM65 °FMild.2 mph50%29.93 "HgN/A
5:00 PM66 °FOvercast.2 mph48%29.93 "Hg47 mi
4:00 PM66 °FMild.3 mph47%29.94 "HgN/A
3:00 PM68 °FMild.1 mph45%29.94 "HgN/A
2:00 PM65 °FOvercast.1 mph51%29.96 "Hg47 mi
1:00 PM64 °FMild.1 mph52%29.96 "HgN/A
12:00 PM66 °FMild.2 mph51%29.97 "HgN/A
11:00 AM61 °FPartly sunny.2 mph62%29.98 "Hg47 mi
10:00 AM60 °FCool.2 mph63%29.98 "HgN/A
9:00 AM58 °FCool.1 mph73%29.99 "HgN/A
8:00 AM55 °FPartly sunny.1 mph75%29.98 "Hg47 mi
7:00 AM56 °FCool.2 mph70%29.98 "HgN/A
6:00 AM55 °FCool.3 mph73%29.98 "HgN/A
5:00 AM54 °FPassing clouds.3 mph75%29.98 "Hg47 mi
4:00 AM54 °FCool.3 mph77%29.98 "HgN/A
3:00 AM52 °FCool.3 mph80%29.98 "HgN/A
2:00 AM53 °FPassing clouds.3 mph78%29.99 "Hg43 mi
1:00 AM54 °FCool.3 mph76%29.98 "HgN/A
12:00 AM55 °FCool.5 mph74%29.98 "HgN/A
11:00 PM
Aug 28
56 °FPassing clouds.3 mph74%29.98 "Hg43 mi
10:00 PM58 °FCool.2 mph71%29.97 "HgN/A
9:00 PM61 °FCool.3 mph65%29.96 "HgN/A
Weather by CustomWeather, © 2014

See weather overviewHow to use our weather pages